Weather History for KCHO - January, 2012

Change the Weather History Date:

Sunday, January 15, 2012

  Actual Average Record
Temperature  
Mean Temperature 30 °F 35 °F  
Max Temperature 38 °F 44 °F 75 °F (1928)
Min Temperature 21 °F 26 °F 5 °F (1994)
Degree Days  
Heating Degree Days 35 30  
Month to date heating degree days 384 450  
Since 1 July heating degree days 1769 2186  
Cooling Degree Days 0 0  
Month to date cooling degree days 0 0  
Year to date cooling degree days 0 0  
Moisture  
Dew Point 13 °F    
Average Humidity 53    
Maximum Humidity 74    
Minimum Humidity 32    
Precipitation  
Precipitation 0.00 in 0.10 in 1.10 in (2013)
Month to date precipitation 1.41 1.38  
Year to date precipitation 1.41 1.38  
Sea Level Pressure  
Sea Level Pressure 30.39 in    
Wind  
Wind Speed 3 mph (NE)    
Max Wind Speed 9 mph    
Max Gust Speed 15 mph    
Visibility 10 miles    
Events      
T = Trace of Precipitation, MM = Missing Value Source: NWS Daily Summary

Daily Weather History Graph

Daily Weather History Graph

Search for Another Location

Airport or City:

Trip Planner

Search our weather history database for the weather conditions in past years. The results will help you decide how hot, cold, wet, or windy it might be!

Date:

Astronomy

Jan. 15, 2012 Rise Set
Actual Time 7:29 AM EST 5:17 PM EST
Civil Twilight 7:00 AM EST 5:46 PM EST
Nautical Twilight 6:27 AM EST 6:18 PM EST
Astronomical Twilight 5:56 AM EST 6:50 PM EST
Moon No Moon Rise 10:53 AM EST (1/15)
Length of Visible Light 10h 46m
Length of Day
9h 48m
Waning Gibbous, 58% of the Moon is Illuminated
Jan 15
Waning Gibbous
Jan 16
Last Quarter
Jan 23
New
Jan 30
First Quarter
Feb 7
Full

Hourly Weather History & Observations

Time (EST) Temp. Windchill Dew Point Humidity Pressure Visibility Wind Dir Wind Speed Gust Speed Precip Events Conditions
12:53 AM 28.0 °F - 17.1 °F 63% 30.14 in 10.0 mi Calm Calm - N/A   Overcast
1:53 AM 27.0 °F - 17.1 °F 66% 30.15 in 10.0 mi Calm Calm - N/A   Overcast
2:53 AM 28.0 °F 24.2 °F 15.1 °F 58% 30.17 in 10.0 mi NE 3.5 mph - N/A   Overcast
3:53 AM 25.0 °F - 15.1 °F 66% 30.19 in 10.0 mi Calm Calm - N/A   Partly Cloudy
4:53 AM 25.0 °F - 15.1 °F 66% 30.22 in 10.0 mi Calm Calm - N/A   Mostly Cloudy
5:53 AM 24.1 °F - 16.0 °F 71% 30.26 in 10.0 mi Calm Calm - N/A   Mostly Cloudy
6:53 AM 24.1 °F - 15.1 °F 69% 30.30 in 10.0 mi Calm Calm - N/A   Mostly Cloudy
7:53 AM 23.0 °F - 15.1 °F 72% 30.35 in 10.0 mi Calm Calm - N/A   Clear
8:53 AM 28.9 °F 23.9 °F 14.0 °F 54% 30.38 in 10.0 mi Variable 4.6 mph - N/A   Clear
9:53 AM 30.9 °F - 14.0 °F 50% 30.42 in 10.0 mi Calm Calm - N/A   Clear
10:53 AM 33.8 °F 27.0 °F 10.4 °F 38% 30.41 in 10.0 mi North 8.1 mph - N/A   Clear
11:53 AM 33.1 °F - 10.0 °F 38% 30.41 in 10.0 mi Calm Calm - N/A   Clear
12:53 PM 36.0 °F 32.1 °F 10.9 °F 36% 30.40 in 10.0 mi Variable 4.6 mph - N/A   Clear
1:53 PM 37.0 °F 34.5 °F 10.0 °F 33% 30.40 in 10.0 mi Variable 3.5 mph - N/A   Clear
2:53 PM 37.0 °F 33.3 °F 10.9 °F 34% 30.43 in 10.0 mi Variable 4.6 mph - N/A   Clear
3:53 PM 37.0 °F - 10.9 °F 34% 30.44 in 10.0 mi Calm Calm - N/A   Clear
4:53 PM 33.1 °F 25.5 °F 14.0 °F 46% 30.46 in 10.0 mi NNE 9.2 mph - N/A   Clear
5:53 PM 30.0 °F 22.4 °F 12.0 °F 47% 30.48 in 10.0 mi ENE 8.1 mph - N/A   Clear
6:53 PM 28.9 °F 21.1 °F 12.9 °F 51% 30.51 in 10.0 mi NNE 8.1 mph - N/A   Clear
7:53 PM 28.9 °F - 12.9 °F 51% 30.53 in 10.0 mi Calm Calm - N/A   Clear
8:53 PM 28.0 °F 20.0 °F 12.0 °F 51% 30.54 in 10.0 mi ENE 8.1 mph - N/A   Clear
9:53 PM 24.8 °F - 12.2 °F 59% 30.53 in 10.0 mi Calm Calm - N/A   Clear
10:53 PM 24.1 °F - 12.9 °F 62% 30.57 in 10.0 mi Calm Calm - N/A   Clear
11:53 PM 24.1 °F - 12.9 °F 62% 30.57 in 10.0 mi Calm Calm - N/A   Clear